Location: Earls Croome
(52.0667°N, 2.2000°W)
Time: 00:43:24
(UTC+00:00)

COSMOS 2455 - Pass Details

Date: 27 February 2020
Orbit: 901 x 908 km, 67.2° (Epoch: 01 April)

Event Time Altitude Azimuth Distance (km) Brightness Sun altitude
Exits shadow 02:01:36 19° 3° (N) 2,013 5.0 -42.0°
Maximum altitude 02:01:44 19° 5° (N) 2,012 5.0 -42.0°
Drops below altitude 10° 02:05:58 10° 50° (NE) 2,601 5.8 -41.6°
Sets 02:09:17 0° 68° (ENE) 3,543 6.6 -41.3°
